Regional Weather Roundup
Issued by NWS Cleveland, OH

Home | Current Version | Previous Version | Text Only | Print | Product List | Glossary Off
Versions: 1 2 3 4 5 6 7 8 9 10 11 12 13 14 15 16 17 18 19 20 21 22 23 24 25 26 27 28 29 30 31 32 33 34 35 36 37 38 39 40 41 42 43 44 45 46 47 48 49 50

000
ASUS41 KCLE 301400
RWRCLE
OHIO REGIONAL WEATHER ROUNDUP
NATIONAL WEATHER SERVICE WILMINGTON, OH
1000 AM EDT THU JUL 30 2015

NOTE: "FAIR" INDICATES FEW OR NO CLOUDS BELOW 12,000 FEET WITH NO
SIGNIFICANT WEATHER AND/OR OBSTRUCTIONS TO VISIBILITY.

OHZ001>008-015>018-024>027-034-035-043-044-301500-
   NORTHWEST OHIO

CITY           SKY/WX    TMP DP  RH WIND       PRES   REMARKS
DEFIANCE       SUNNY     76  61  59 NW10      30.03S
FINDLAY        SUNNY     75  62  64 NW9       30.02S
TOLEDO EXPRESS SUNNY     74  61  63 W10       30.01R
TOLEDO EXEC    SUNNY     76  60  57 W10       30.01R
LIMA           SUNNY     74  60  61 NW10      30.05R
$$

OHZ009>014-019>023-028>033-038-089-301500-
   NORTHEAST OHIO

CITY           SKY/WX    TMP DP  RH WIND       PRES   REMARKS
CLE-HOPKINS    MOSUNNY   76  65  68 W8        30.00S
CLE-LAKEFRONT  SUNNY     78  66  66 W14       29.96S
CUY CO. ARPT   MOSUNNY   79  64  61 W16       29.98R
LORAIN-ELYRIA  SUNNY     74  63  68 NW8       30.00R
ASHTABULA      SUNNY     77  65  66 NW9       29.97R
AKRON-CANTON   MOSUNNY   78  63  59 W9        30.00S
WOOSTER        NOT AVBL
MANSFIELD      SUNNY     74  60  61 W6        30.03S
YOUNGSTOWN     MOSUNNY   75  64  68 W10       29.98S
$$

OHZ042-051>053-060>062-070>072-077>081-301500-
  SOUTHWEST OHIO

CITY           SKY/WX    TMP DP  RH WIND       PRES   REMARKS
CINC-COVINGTON MOSUNNY   75  60  59 NW12      30.09R
CINC-LUNKEN    SUNNY     77  62  59 N7        30.08R
HAMILTON       SUNNY     77  61  57 N6        30.08S
DAYTON         NOT AVBL
WRIGHT-PAT AFB NOT AVBL
DAYTON GENERAL SUNNY     75  59  57 N8        30.07R
WILMINGTON     SUNNY     74  61  63 NW8       30.07R
$$

OHZ036-037-039>041-045>050-054>059-063>069-073>076-082>088-301500-
  CENTRAL AND SOUTHEAST OHIO

CITY           SKY/WX    TMP DP  RH WIND       PRES   REMARKS
COLUMBUS       MOSUNNY   77  60  55 NW8       30.03R
OSU AIRPORT    SUNNY     75  61  61 NW9       30.04R
BOLTON FIELD   NOT AVBL
RICKENBACK AFB NOT AVBL
NEWARK         SUNNY     77  63  61 NW6       30.03R
MARION         SUNNY     74  61  63 NW9       30.04R
LANCASTER      SUNNY     76  62  62 NW7       30.04R
ZANESVILLE     SUNNY     76  60  57 NW9       30.02R
NEW PHILLY     SUNNY     76  63  64 NW6       30.01R
$$


USA.gov is the U.S. government's official web portal to all federal, state and local government web resources and services.